Home > Weather > Greensboro > Past weeks

Flag for USA Weather for the Past 2 Weeks in Greensboro, North Carolina, USA

Now
59 °F

Drizzle. Fog.


Feels Like: 57 °F
Forecast: 60 / 68 °F
Wind: 9 mph from East

Location: Piedmont Triad International Airport

Current Time: Apr 30, 2016 at 9:30:39 AM

Latest Report: Apr 30, 2016 at 8:54 AM


Visibility: 2 mi

Pressure: 30.07 "Hg

Humidity: 96%

Dew Point: 58 °F

Location of GreensboroLocation

Historic Weather in Greensboro — Graph

°F

Greensboro Temperature Yesterday

Maximum temperature yesterday: 82 °F (at 3:54 PM)
Minimum temperature yesterday: 59 °F (at 5:54 AM)
Average temperature yesterday: 70 °F

High & Low Weather Summary for the Past Weeks

 TemperatureHumidityPressure
High86 °F (Apr 19, 1:54 PM)100% (Apr 23, 5:54 AM)30.44 "Hg (Apr 23, 5:54 AM)
Low39 °F (Apr 16, 6:54 AM)16% (Apr 19, 1:54 PM)29.75 "Hg (Apr 27, 4:54 PM)
Average66 °F54%30.06 "Hg
* Reported Apr 15 7:54 AM — Apr 30 7:54 AM, Greensboro, Weather by CustomWeather, © 2016

Note: Actual official high and low records may vary slightly from our data, if they occured in-between our weather recording intervals... More about our weather records

Advertising

Greensboro Weather History for the Previous 24 Hours

Scroll right to see more
 ConditionsComfort  
Time TempWeatherWind HumidityBarometerVisibility
7:54 AM
Sat, Apr 30
59 °FDrizzle. Fog.12 mph96%30.06 "Hg2 mi
6:54 AM59 °FDrizzle. Fog.7 mph96%30.05 "Hg2 mi
5:54 AM59 °FFog.13 mph96%30.04 "Hg3 mi
4:54 AM61 °FLow clouds.12 mph90%30.02 "Hg8 mi
3:54 AM61 °FFog.13 mph93%30.00 "Hg6 mi
2:54 AM62 °FLow clouds.13 mph93%30.01 "Hg7 mi
1:54 AM63 °FPassing clouds.13 mph90%29.99 "Hg10 mi
12:54 AM66 °FPassing clouds.9 mph84%29.99 "Hg10 mi
11:54 PM
Fri, Apr 29
69 °FPassing clouds.5 mph70%29.97 "Hg10 mi
10:54 PM70 °FPassing clouds.3 mph59%29.94 "Hg10 mi
9:54 PM71 °FPassing clouds.No wind57%29.94 "Hg10 mi
8:54 PM74 °FPartly sunny.5 mph48%29.93 "Hg10 mi
7:54 PM75 °FOvercast.5 mph47%29.91 "Hg10 mi
6:54 PM79 °FOvercast.9 mph39%29.90 "Hg10 mi
5:54 PM80 °FOvercast.12 mph38%29.88 "Hg10 mi
4:54 PM82 °FScattered clouds.8 mph35%29.89 "Hg10 mi
3:54 PM82 °FScattered clouds.7 mph34%29.90 "Hg10 mi
2:54 PM80 °FPartly sunny.3 mph35%29.93 "Hg10 mi
1:54 PM80 °FScattered clouds.6 mph35%29.94 "Hg10 mi
12:54 PM79 °FScattered clouds.10 mph39%29.95 "Hg10 mi
11:54 AM76 °FPartly sunny.7 mph42%29.96 "Hg10 mi
10:54 AM74 °FPartly sunny.6 mph46%29.96 "Hg10 mi
9:54 AM68 °FPartly sunny.No wind73%29.98 "Hg10 mi
Weather by CustomWeather, © 2016

See weather overviewHow to use our weather pages